When you browse on this site, cookies collect data to enhance your experience and personalize the content and advertising you see.
Visit our Privacy Policy to learn more. By continuing to use the site, you agree to this use of cookies and data.
  • En España
  • Lista de países
  • Para 7 días
  • Temperatura del agua
  • Mapa Satelital
  • El tiempo en el mapa
  • Informadores
  • user-avatar
    Iniciar sesión

    Tiempo cada hora Astana

    Hoy, 19 Junio, Miércoles

    Tiempo Temperatura Precipitaciones Viento Presión Humedad
    00:00 +12°C° 0 mm 4 mps 723 mmHg 86%
    01:00 +11°C° 0 mm 4 mps 723 mmHg 88%
    02:00 +11°C° 0 mm 4 mps 723 mmHg 89%
    03:00 +11°C° 0 mm 4 mps 723 mmHg 91%
    04:00 +10°C° 0 mm 3 mps 723 mmHg 92%
    05:00 +10°C° 0 mm 3 mps 724 mmHg 93%
    06:00 +11°C° 0 mm 3 mps 724 mmHg 89%
    07:00 +13°C° 0 mm 3 mps 724 mmHg 84%
    08:00 +14°C° 0 mm 4 mps 725 mmHg 80%
    09:00 +16°C° 0.1 mm 3 mps 725 mmHg 76%
    10:00 +16°C° 0.1 mm 3 mps 725 mmHg 72%
    11:00 +17°C° 0.1 mm 3 mps 726 mmHg 68%
    12:00 +18°C° 0.2 mm 4 mps 726 mmHg 66%
    13:00 +18°C° 0.2 mm 4 mps 726 mmHg 64%
    14:00 +19°C° 0.2 mm 4 mps 726 mmHg 61%
    15:00 +19°C° 0.1 mm 4 mps 726 mmHg 59%
    16:00 +19°C° 0.1 mm 4 mps 727 mmHg 58%
    17:00 +20°C° 0.1 mm 4 mps 727 mmHg 56%
    18:00 +19°C° 0.1 mm 4 mps 727 mmHg 62%
    19:00 +17°C° 0.1 mm 3 mps 727 mmHg 68%
    20:00 +16°C° 0.1 mm 3 mps 728 mmHg 74%
    21:00 +14°C° 0 mm 3 mps 728 mmHg 76%
    22:00 +13°C° 0 mm 3 mps 728 mmHg 79%
    23:00 +12°C° 0 mm 3 mps 728 mmHg 82%

    Mañana, 20 Junio, Jueves

    Tiempo Temperatura Precipitaciones Viento Presión Humedad
    00:00 +12°C° 0 mm 3 mps 728 mmHg 82%
    01:00 +12°C° 0 mm 2 mps 729 mmHg 82%
    02:00 +12°C° 0 mm 2 mps 729 mmHg 82%
    03:00 +12°C° 0 mm 2 mps 729 mmHg 81%
    04:00 +12°C° 0 mm 2 mps 729 mmHg 81%
    05:00 +12°C° 0 mm 2 mps 729 mmHg 80%
    06:00 +13°C° 0 mm 3 mps 730 mmHg 73%
    07:00 +14°C° 0 mm 3 mps 730 mmHg 67%
    08:00 +17°C° 0 mm 3 mps 730 mmHg 60%
    09:00 +18°C° 0 mm 3 mps 730 mmHg 56%
    10:00 +19°C° 0 mm 3 mps 730 mmHg 53%
    11:00 +21°C° 0 mm 3 mps 730 mmHg 49%
    12:00 +21°C° 0 mm 2 mps 730 mmHg 47%
    13:00 +23°C° 0 mm 2 mps 730 mmHg 46%
    14:00 +23°C° 0 mm 2 mps 730 mmHg 44%
    15:00 +23°C° 0 mm 2 mps 730 mmHg 44%
    16:00 +23°C° 0 mm 2 mps 730 mmHg 44%
    17:00 +23°C° 0 mm 2 mps 729 mmHg 45%
    18:00 +21°C° 0 mm 2 mps 729 mmHg 49%
    19:00 +20°C° 0 mm 2 mps 729 mmHg 54%
    20:00 +19°C° 0 mm 2 mps 729 mmHg 59%
    21:00 +18°C° 0 mm 2 mps 729 mmHg 60%
    22:00 +17°C° 0 mm 2 mps 729 mmHg 61%
    23:00 +16°C° 0 mm 2 mps 729 mmHg 61%

    Pasado mañana, 21 Junio, Viernes

    Tiempo Temperatura Precipitaciones Viento Presión Humedad
    00:00 +16°C° 0 mm 2 mps 729 mmHg 61%
    01:00 +15°C° 0 mm 2 mps 729 mmHg 60%
    02:00 +15°C° 0 mm 2 mps 729 mmHg 60%
    03:00 +15°C° 0 mm 2 mps 729 mmHg 61%
    04:00 +15°C° 0 mm 2 mps 729 mmHg 61%
    05:00 +14°C° 0 mm 2 mps 729 mmHg 61%
    06:00 +16°C° 0 mm 2 mps 729 mmHg 56%
    07:00 +18°C° 0 mm 2 mps 729 mmHg 50%
    08:00 +20°C° 0 mm 2 mps 729 mmHg 44%
    09:00 +22°C° 0 mm 3 mps 729 mmHg 41%
    10:00 +24°C° 0 mm 3 mps 729 mmHg 38%
    11:00 +25°C° 0 mm 3 mps 729 mmHg 35%
    12:00 +26°C° 0 mm 3 mps 728 mmHg 34%
    13:00 +26°C° 0 mm 3 mps 728 mmHg 33%
    14:00 +27°C° 0 mm 3 mps 728 mmHg 32%
    15:00 +27°C° 0 mm 3 mps 727 mmHg 33%
    16:00 +27°C° 0 mm 3 mps 727 mmHg 33%
    17:00 +27°C° 0 mm 3 mps 727 mmHg 34%
    18:00 +25°C° 0 mm 3 mps 727 mmHg 39%
    19:00 +24°C° 0 mm 3 mps 726 mmHg 44%
    20:00 +21°C° 0 mm 3 mps 726 mmHg 49%
    21:00 +20°C° 0 mm 3 mps 726 mmHg 51%
    22:00 +19°C° 0 mm 3 mps 726 mmHg 54%
    23:00 +18°C° 0 mm 3 mps 726 mmHg 56%

    22 Junio, Sábado

    Tiempo Temperatura Precipitaciones Viento Presión Humedad
    00:00 +18°C° 0 mm 2 mps 726 mmHg 56%
    01:00 +18°C° 0 mm 2 mps 726 mmHg 57%
    02:00 +18°C° 0 mm 1 mps 726 mmHg 57%
    03:00 +17°C° 0 mm 2 mps 726 mmHg 60%
    04:00 +17°C° 0 mm 2 mps 726 mmHg 63%
    05:00 +17°C° 0 mm 2 mps 726 mmHg 65%
    06:00 +18°C° 0 mm 3 mps 727 mmHg 65%
    07:00 +19°C° 0 mm 4 mps 727 mmHg 65%
    08:00 +20°C° 0 mm 5 mps 727 mmHg 65%
    09:00 +21°C° 0 mm 5 mps 728 mmHg 58%
    10:00 +22°C° 0 mm 6 mps 728 mmHg 51%
    11:00 +23°C° 0 mm 6 mps 728 mmHg 44%
    12:00 +23°C° 0 mm 6 mps 728 mmHg 43%
    13:00 +24°C° 0 mm 6 mps 728 mmHg 41%
    14:00 +24°C° 0 mm 7 mps 728 mmHg 40%
    15:00 +23°C° 0 mm 7 mps 729 mmHg 40%
    16:00 +23°C° 0 mm 7 mps 729 mmHg 41%
    17:00 +22°C° 0 mm 7 mps 729 mmHg 41%
    18:00 +20°C° 0 mm 7 mps 730 mmHg 46%
    19:00 +19°C° 0 mm 6 mps 730 mmHg 51%
    20:00 +16°C° 0 mm 6 mps 730 mmHg 55%
    21:00 +14°C° 0 mm 5 mps 731 mmHg 56%
    22:00 +13°C° 0 mm 4 mps 731 mmHg 57%
    23:00 +12°C° 0 mm 3 mps 731 mmHg 58%

    23 Junio, Domingo

    Tiempo Temperatura Precipitaciones Viento Presión Humedad
    00:00 +11°C° 0 mm 3 mps 731 mmHg 61%
    01:00 +12°C° 0 mm 2 mps 731 mmHg 64%
    02:00 +10°C° 0 mm 2 mps 731 mmHg 67%
    03:00 +10°C° 0 mm 2 mps 732 mmHg 69%
    04:00 +10°C° 0 mm 2 mps 732 mmHg 70%
    05:00 +10°C° 0 mm 2 mps 732 mmHg 72%
    06:00 +12°C° 0 mm 3 mps 732 mmHg 66%
    07:00 +13°C° 0 mm 4 mps 732 mmHg 61%
    08:00 +15°C° 0 mm 4 mps 733 mmHg 55%
    09:00 +17°C° 0 mm 4 mps 733 mmHg 49%
    10:00 +18°C° 0 mm 4 mps 733 mmHg 44%
    11:00 +19°C° 0 mm 4 mps 733 mmHg 38%
    12:00 +18°C° 0.1 mm 4 mps 732 mmHg 45%
    13:00 +17°C° 0.1 mm 4 mps 732 mmHg 53%
    14:00 +14°C° 0.1 mm 4 mps 732 mmHg 60%
    15:00 +14°C° 0.1 mm 4 mps 732 mmHg 61%
    16:00 +15°C° 0.1 mm 4 mps 731 mmHg 63%
    17:00 +15°C° 0.1 mm 4 mps 731 mmHg 65%
    18:00 +15°C° 0 mm 4 mps 731 mmHg 64%
    19:00 +15°C° 0 mm 4 mps 730 mmHg 64%
    20:00 +15°C° 0 mm 4 mps 730 mmHg 64%
    21:00 +15°C° 0 mm 4 mps 730 mmHg 64%
    22:00 +17°C° 0 mm 3 mps 730 mmHg 64%
    23:00 +18°C° 0 mm 3 mps 729 mmHg 64%

    24 Junio, Lunes

    Tiempo Temperatura Precipitaciones Viento Presión Humedad
    00:00 +17°C° 0.1 mm 3 mps 729 mmHg 68%
    01:00 +17°C° 0.1 mm 3 mps 729 mmHg 73%
    02:00 +16°C° 0.1 mm 3 mps 728 mmHg 77%
    03:00 +16°C° 0.5 mm 3 mps 728 mmHg 79%
    04:00 +16°C° 0.5 mm 3 mps 728 mmHg 81%
    05:00 +16°C° 0.5 mm 3 mps 728 mmHg 83%
    06:00 +18°C° 0.5 mm 3 mps 728 mmHg 80%
    07:00 +19°C° 0.5 mm 4 mps 728 mmHg 76%
    08:00 +20°C° 0.5 mm 4 mps 729 mmHg 73%
    09:00 +19°C° 1 mm 4 mps 729 mmHg 79%
    10:00 +19°C° 1 mm 4 mps 729 mmHg 84%
    11:00 +18°C° 1 mm 4 mps 729 mmHg 90%
    12:00 +18°C° 0.4 mm 4 mps 729 mmHg 89%
    13:00 +19°C° 0.4 mm 4 mps 729 mmHg 89%
    14:00 +19°C° 0.4 mm 4 mps 729 mmHg 88%
    15:00 +21°C° 0 mm 3 mps 729 mmHg 82%
    16:00 +22°C° 0 mm 3 mps 729 mmHg 75%
    17:00 +24°C° 0 mm 2 mps 729 mmHg 69%
    18:00 +24°C° 0 mm 2 mps 728 mmHg 72%
    19:00 +23°C° 0 mm 1 mps 728 mmHg 75%
    20:00 +20°C° 0 mm 0 mps 728 mmHg 79%
    21:00 +19°C° 0 mm 0 mps 728 mmHg 81%
    22:00 +20°C° 0 mm 1 mps 728 mmHg 84%
    23:00 +20°C° 0 mm 1 mps 728 mmHg 87%
    Mostrar más